Tracking 32968 objects as of 17-Jan-2026
HD Live streaming from Space Station
objects crossing your sky now

STARLINK-2475

Track STARLINK-2475 now!
10-day predictions
STARLINK-2475 is classified as:


NORAD ID: 48133
Int'l Code: 2021-027AT
Perigee: 553.5 km
Apogee: 555.2 km
Inclination: 53.1 °
Period: 95.6 minutes
Semi major axis: 6925 km
RCS: Unknown
Launch date: April 7, 2021
Source: United States (US)
Launch site: AIR FORCE EASTERN TEST RANGE (AFETR)
Your satellite tracking list
Your tracking list is empty




NASA's NSSDC Master Catalog

Two Line Element Set (TLE):
1 48133U 21027AT  26017.49941549  .00000954  00000-0  82942-4 0  9999
2 48133  53.0547  41.4206 0001201  84.4239 275.6887 15.06403227264708
Source of the keplerian elements: AFSPC